[[{"header":{"parameterUnit":"m.s-1","parameterCategory":1,"la1":30.2991,"la2":30.254,"lo1":-89.0895,"lo2":-89.0444,"dy":0.0017,"dx":0.0017,"nx":28,"ny":28,"refTime":"2023-08-30T09:00:00:Z","depth":0,"parameterNumber":2,"parameterNumberName":"U-component_of_WINDS"},"data":[0,0,0,0,0,0,0,0,0,0,0,0,0,0,0,0,0,0,0,0,0,0,0,0,0,0,0,0,0,0,0,0,0,0,0,0,0,0,0,0,0,0,0,0,0,0,0,0,0,0,0,0,0,0,0,0,0,0,1.2974,1.2973,0,1.2878,1.2877,1.2876,1.2825,1.2825,1.2825,1.2825,1.2724,1.2721,1.2719,0,0,0,0,0,0,0,0,0,0,0,0,0,1.3111,1.3109,1.2974,1.2973,1.2972,1.2879,1.2877,1.2876,1.2825,1.2825,1.2825,1.2825,1.2725,1.2722,1.2718,0,0,0,0,0,0,0,0,0,0,0,0,0,1.3037,1.3108,1.2975,1.2936,1.2931,1.2879,1.2877,1.2876,1.2825,1.2825,1.2825,1.2825,1.2726,1.2722,1.2718,1.2696,0,0,1.2706,1.2704,0,0,0,0,0,0,0,0,1.3041,1.3032,1.2942,1.2938,1.2933,1.2864,1.2888,1.2815,1.2825,1.2865,1.2825,1.2825,1.277,1.2763,1.2745,1.2691,1.2687,1.2706,1.2703,1.2702,1.27,0,0,0,0,0,0,0,1.3046,1.3036,1.2936,1.2941,1.2935,1.2922,1.2911,1.2874,1.282,1.2862,1.2858,1.2848,1.2768,1.2749,1.2742,1.2686,1.2706,1.2702,1.27,1.2698,1.2609,1.2609,0,0,0,0,0,0,1.3058,1.304,1.2939,1.2933,1.2988,1.292,1.2908,1.2886,1.282,1.281,1.2848,1.2846,1.2756,1.2747,1.2738,1.2708,1.2702,1.2698,1.2696,1.2609,1.2609,1.2609,0,0,0,0,0,0,1.3061,1.305,1.2943,1.2986,1.2971,1.2917,1.2894,1.2884,1.2865,1.2809,1.2799,1.2839,1.2755,1.2744,1.2707,1.2704,1.2696,1.2693,1.2609,1.2609,1.2609,1.2648,0,0,0,0,0,0,1.3066,1.3051,1.3043,1.2986,1.2969,1.2915,1.2893,1.2882,1.2859,1.2855,1.2798,1.2788,1.2754,1.2713,1.2703,1.2698,1.2689,1.2609,1.2609,1.2609,1.2647,1.2649,1.2652,0,0,0,0,0,1.3071,1.3057,1.3043,1.3031,1.2958,1.2914,1.2905,1.2866,1.2859,1.285,1.2814,1.279,1.2706,1.271,1.2698,1.2692,1.2609,1.2609,1.2609,1.2646,1.2649,1.2651,0,0,0,0,0,0,1.3113,1.3049,1.3032,1.3,1.2963,1.2906,1.2893,1.2871,1.2835,1.2833,1.2786,1.2773,1.2741,1.2713,1.2718,1.2668,1.2655,1.2653,1.2687,1.2689,1.2692,1.2699,1.2686,0,0,0,0,0,1.3119,1.309,1.3035,1.3012,1.2994,1.2947,1.2927,1.2901,1.286,1.2844,1.2806,1.2767,1.2731,1.2709,1.2674,1.2643,1.2629,1.2633,1.2635,1.2638,1.2636,1.2617,1.2618,1.2609,1.2609,1.2609,0,0,1.313,1.3092,1.3076,1.3019,1.2988,1.2958,1.2934,1.2904,1.2881,1.2839,1.2802,1.2773,1.2726,1.2693,1.2676,1.2668,1.2635,1.2638,1.264,1.2636,1.2617,1.2618,1.2619,1.2609,1.2609,1.2609,0,0,1.3136,1.3104,1.3081,1.305,1.3003,1.2972,1.2967,1.2913,1.2892,1.2855,1.2823,1.2795,1.2736,1.2704,1.268,1.2675,1.2651,1.2664,1.2676,1.2659,1.2659,1.266,1.2657,1.2657,1.2663,1.2663,1.2663,0,1.3155,1.311,1.3072,1.3043,1.3019,1.2982,1.2957,1.2929,1.2873,1.2857,1.2849,1.2774,1.274,1.2698,1.2697,1.2679,1.2671,1.267,1.2663,1.2662,1.2662,1.2659,1.2658,1.2665,1.2665,1.2664,1.2664,0,1.3136,1.3105,1.3092,1.304,1.3015,1.2989,1.2945,1.2924,1.2901,1.287,1.2833,1.2791,1.2746,1.2735,1.2711,1.269,1.2686,1.2672,1.2658,1.2665,1.2662,1.266,1.2667,1.2667,1.2666,1.2666,0,0,1.3164,1.3092,1.3088,1.3064,1.301,1.2985,1.2957,1.2915,1.2897,1.286,1.2835,1.2786,1.2772,1.2745,1.2717,1.2702,1.27,1.2689,1.2687,1.2692,1.2673,1.2684,1.2684,1.2685,1.2685,1.2684,1.2677,0,1.3161,1.311,1.3075,1.3038,1.3008,1.2973,1.2949,1.2913,1.2884,1.2854,1.2822,1.2788,1.2773,1.2756,1.2739,1.2704,1.2696,1.2704,1.266,1.2659,1.2672,1.2682,1.2693,1.2688,1.2675,1.2675,1.2675,0,1.315,1.3115,1.3075,1.3025,1.3011,1.299,1.2949,1.2921,1.288,1.286,1.283,1.2803,1.2771,1.2762,1.2717,1.2724,1.2704,1.2684,1.2683,1.2676,1.2667,1.2674,1.2685,1.2684,1.2672,1.2673,1.2673,0,1.3174,1.3117,1.3085,1.3066,1.3007,1.2992,1.2967,1.2925,1.2902,1.2866,1.285,1.2811,1.2788,1.2758,1.272,1.2717,1.2679,1.2667,1.2661,1.2662,1.2653,1.2654,1.266,1.2643,1.2643,1.2643,1.2643,0,1.3173,1.315,1.3095,1.3076,1.3048,1.3008,1.2982,1.2954,1.2917,1.2891,1.2858,1.2834,1.2786,1.2756,1.2726,1.2694,1.2684,1.2667,1.2659,1.2669,1.2671,1.2654,1.2653,1.2642,1.2643,1.2643,1.2643,0,1.3194,1.3157,1.312,1.3068,1.3054,1.3036,1.299,1.297,1.294,1.2907,1.2897,1.285,1.2813,1.2773,1.2722,1.2702,1.2671,1.266,1.2685,1.268,1.2676,1.2677,1.2671,1.2668,1.2654,1.2654,1.2654,0,1.3196,1.3177,1.3123,1.3104,1.3079,1.3049,1.3025,1.2986,1.2962,1.2914,1.2899,1.286,1.2827,1.2769,1.273,1.2691,1.2678,1.2679,1.2672,1.2683,1.2677,1.2678,1.2676,1.268,1.2681,1.2681,1.2681,0,1.3202,1.3185,1.3153,1.3115,1.3088,1.3056,1.3022,1.3008,1.2961,1.2937,1.29,1.2874,1.2823,1.2784,1.274,1.2713,1.2689,1.2684,1.2681,1.269,1.2705,1.2696,1.2689,1.2684,1.2684,1.2684,1.2683,1.2683,1.3213,1.3194,1.3154,1.3119,1.309,1.306,1.3038,1.3006,1.2974,1.293,1.2909,1.2871,1.283,1.2769,1.2743,1.2713,1.2705,1.27,1.2699,1.2698,1.27,1.2711,1.2705,1.2705,1.2704,1.2704,1.2704,0,1.3217,1.3189,1.3158,1.3113,1.3086,1.3067,1.3029,1.3007,1.2975,1.294,1.2908,1.2865,1.2827,1.2785,1.2745,1.2729,1.2717,1.272,1.272,1.2714,1.2709,1.2716,1.273,1.273,1.273,1.273,1.273,1.273,1.3216,1.3184,1.3162,1.3115,1.3087,1.3051,1.3031,1.3003,1.2974,1.2928,1.2897,1.287,1.2832,1.2789,1.2754,1.2742,1.2729,1.2734,1.272,1.2716,1.2714,1.2712,1.2718,1.2732,1.2732,1.2726,1.2726,1.2726]},{"header":{"parameterUnit":"m.s-1","parameterCategory":1,"la1":30.2991,"la2":30.254,"lo1":-89.0895,"lo2":-89.0444,"dy":0.0017,"dx":0.0017,"nx":28,"ny":28,"refTime":"2023-08-30T09:00:00:Z","depth":0,"parameterNumber":3,"parameterNumberName":"V-component_of_WINDS"},"data":[0,0,0,0,0,0,0,0,0,0,0,0,0,0,0,0,0,0,0,0,0,0,0,0,0,0,0,0,0,0,0,0,0,0,0,0,0,0,0,0,0,0,0,0,0,0,0,0,0,0,0,0,0,0,0,0,0,0,-6.3062,-6.3064,0,-6.3234,-6.3236,-6.3238,-6.3189,-6.3185,-6.3181,-6.3178,-6.3349,-6.3356,-6.3364,0,0,0,0,0,0,0,0,0,0,0,0,0,-6.2685,-6.2692,-6.3062,-6.3064,-6.3066,-6.3234,-6.3236,-6.3239,-6.3189,-6.3185,-6.3181,-6.3177,-6.3346,-6.3356,-6.3365,0,0,0,0,0,0,0,0,0,0,0,0,0,-6.2852,-6.2695,-6.3061,-6.3062,-6.3063,-6.3233,-6.3236,-6.3239,-6.319,-6.3185,-6.3179,-6.3175,-6.3343,-6.3355,-6.3366,-6.3544,0,0,-6.3402,-6.3407,0,0,0,0,0,0,0,0,-6.2843,-6.2866,-6.3059,-6.3062,-6.3064,-6.3185,-6.3166,-6.3341,-6.3191,-6.3142,-6.3178,-6.3172,-6.3298,-6.3313,-6.3357,-6.3552,-6.356,-6.3403,-6.341,-6.3415,-6.3419,0,0,0,0,0,0,0,-6.2831,-6.2858,-6.313,-6.3062,-6.3065,-6.3052,-6.307,-6.3199,-6.3247,-6.3146,-6.3143,-6.3164,-6.3298,-6.3346,-6.3361,-6.3562,-6.3403,-6.3413,-6.342,-6.3425,-6.3913,-6.3919,0,0,0,0,0,0,-6.2818,-6.2849,-6.3124,-6.3135,-6.2938,-6.3063,-6.3083,-6.3151,-6.3246,-6.3255,-6.3168,-6.3161,-6.3328,-6.3347,-6.3366,-6.3582,-6.3415,-6.3426,-6.3433,-6.3908,-6.3915,-6.3921,0,0,0,0,0,0,-6.2811,-6.2844,-6.3117,-6.2991,-6.3025,-6.3075,-6.3152,-6.3157,-6.3205,-6.3263,-6.3271,-6.3208,-6.3325,-6.335,-6.3501,-6.3587,-6.3431,-6.3442,-6.3901,-6.391,-6.3918,-6.4015,0,0,0,0,0,0,-6.28,-6.2841,-6.291,-6.2993,-6.3032,-6.3251,-6.3157,-6.3165,-6.3226,-6.3218,-6.3302,-6.3311,-6.3323,-6.3484,-6.3513,-6.3601,-6.3451,-6.3893,-6.3905,-6.3915,-6.4004,-6.4026,-6.4045,0,0,0,0,0,-6.2787,-6.2929,-6.2914,-6.2948,-6.312,-6.3256,-6.3278,-6.329,-6.3233,-6.3303,-6.334,-6.3309,-6.3573,-6.35,-6.3532,-6.3625,-6.3888,-6.3901,-6.3914,-6.3995,-6.4022,-6.4044,0,0,0,0,0,0,-6.2853,-6.294,-6.2924,-6.3098,-6.3171,-6.3247,-6.3335,-6.3317,-6.3406,-6.3394,-6.3403,-6.3423,-6.3578,-6.3616,-6.3533,-6.3803,-6.3722,-6.3742,-6.3772,-6.3798,-6.3818,-6.3806,-6.3461,0,0,0,0,0,-6.2888,-6.2993,-6.3063,-6.3209,-6.3247,-6.3285,-6.3345,-6.3348,-6.3422,-6.3452,-6.35,-6.3572,-6.3672,-6.3737,-6.3831,-6.4009,-6.4027,-6.4089,-6.4109,-6.4125,-6.4143,-6.4241,-6.427,-6.3965,-6.3965,-6.3965,0,0,-6.2961,-6.3021,-6.3087,-6.3224,-6.328,-6.3388,-6.3311,-6.3427,-6.3507,-6.3469,-6.3616,-6.3654,-6.3734,-6.3901,-6.3976,-6.3937,-6.4231,-6.4143,-6.4155,-6.4164,-6.4258,-6.4287,-6.4312,-6.3974,-6.3972,-6.3971,0,0,-6.3149,-6.3206,-6.3335,-6.3394,-6.3481,-6.3506,-6.3537,-6.3618,-6.3642,-6.379,-6.3764,-6.3858,-6.4029,-6.4088,-6.414,-6.4353,-6.4327,-6.4383,-6.4489,-6.4584,-6.4608,-6.4629,-6.4706,-6.4733,-6.44,-6.44,-6.44,0,-6.3228,-6.3391,-6.3403,-6.3523,-6.3584,-6.3557,-6.3687,-6.3743,-6.3856,-6.3898,-6.3853,-6.4068,-6.412,-6.4301,-6.4353,-6.4396,-6.4431,-6.4373,-6.4604,-6.4625,-6.4645,-6.4719,-6.4747,-6.4406,-6.4406,-6.4405,-6.4405,0,-6.3485,-6.3598,-6.3691,-6.3804,-6.3875,-6.4,-6.4029,-6.41,-6.4097,-6.4126,-6.4277,-6.4339,-6.4447,-6.4489,-6.4486,-6.467,-6.4643,-6.4601,-6.452,-6.4681,-6.475,-6.4778,-6.4416,-6.4413,-6.4411,-6.441,0,0,-6.3719,-6.3838,-6.3872,-6.3924,-6.4018,-6.4105,-6.4228,-6.4336,-6.4396,-6.4475,-6.4578,-6.4724,-6.4687,-6.4746,-6.475,-6.4833,-6.4999,-6.4781,-6.4783,-6.4821,-6.5205,-6.5237,-6.527,-6.4983,-6.4988,-6.4992,-6.5199,0,-6.3916,-6.4135,-6.415,-6.4347,-6.4452,-6.4428,-6.4535,-6.4604,-6.4635,-6.4727,-6.476,-6.4864,-6.4806,-6.4842,-6.4924,-6.4962,-6.5077,-6.4947,-6.5078,-6.5083,-6.506,-6.5305,-6.5339,-6.5531,-6.5226,-6.523,-6.5234,0,-6.4175,-6.4265,-6.4474,-6.4556,-6.46,-6.4696,-6.4797,-6.4885,-6.4963,-6.4979,-6.5047,-6.5039,-6.5164,-6.5079,-6.5251,-6.5163,-6.5217,-6.5244,-6.5251,-6.5264,-6.5168,-6.5326,-6.5593,-6.5622,-6.5276,-6.5273,-6.527,0,-6.4327,-6.4499,-6.4647,-6.4691,-6.479,-6.4858,-6.4902,-6.4975,-6.5039,-6.5126,-6.5167,-6.5267,-6.5321,-6.5398,-6.5417,-6.5353,-6.5589,-6.5505,-6.5606,-6.5606,-6.5657,-6.5654,-6.5937,-6.5691,-6.569,-6.569,-6.5689,0,-6.4546,-6.4675,-6.4717,-6.4808,-6.4951,-6.4966,-6.5107,-6.5146,-6.5212,-6.5309,-6.5293,-6.5384,-6.5403,-6.5498,-6.5513,-6.5654,-6.5678,-6.5694,-6.5697,-6.5697,-6.5695,-6.5733,-6.572,-6.5698,-6.5696,-6.5694,-6.5693,0,-6.4739,-6.4773,-6.4932,-6.5013,-6.5037,-6.5139,-6.5208,-6.5295,-6.5324,-6.5447,-6.5476,-6.5522,-6.5633,-6.5659,-6.579,-6.58,-6.5968,-6.5957,-6.5943,-6.5942,-6.6042,-6.6033,-6.636,-6.6405,-6.6128,-6.6131,-6.6133,0,-6.4877,-6.4977,-6.5069,-6.5135,-6.5182,-6.5287,-6.5353,-6.5371,-6.5441,-6.5538,-6.5613,-6.5722,-6.5811,-6.5989,-6.6032,-6.6133,-6.6125,-6.6233,-6.614,-6.6137,-6.6128,-6.6122,-6.6132,-6.6251,-6.6254,-6.6256,-6.6258,0,-6.512,-6.5132,-6.5229,-6.5333,-6.5413,-6.5494,-6.5572,-6.5626,-6.5655,-6.5733,-6.5848,-6.5917,-6.6052,-6.6161,-6.6263,-6.6306,-6.6287,-6.6287,-6.6316,-6.6317,-6.6305,-6.6314,-6.5992,-6.6279,-6.6277,-6.6276,-6.6275,-6.6274,-6.529,-6.5378,-6.5458,-6.5567,-6.5628,-6.5702,-6.5788,-6.5829,-6.5926,-6.6039,-6.6043,-6.6168,-6.6243,-6.6378,-6.6428,-6.6524,-6.6491,-6.6533,-6.6543,-6.6554,-6.6563,-6.6289,-6.6543,-6.6542,-6.6541,-6.6541,-6.6541,0,-6.5533,-6.5583,-6.5683,-6.5795,-6.588,-6.5857,-6.5943,-6.6016,-6.6127,-6.62,-6.6288,-6.642,-6.6526,-6.6579,-6.6683,-6.6751,-6.6745,-6.6778,-6.6773,-6.6784,-6.6586,-6.6552,-6.6781,-6.6781,-6.6781,-6.6781,-6.6781,-6.6781,-6.5669,-6.5817,-6.5838,-6.6016,-6.6065,-6.6189,-6.624,-6.6308,-6.6366,-6.6516,-6.6605,-6.6639,-6.6704,-6.6813,-6.6909,-6.6922,-6.6961,-6.6999,-6.7007,-6.6822,-6.6797,-6.6774,-6.6742,-6.7007,-6.7007,-6.7197,-6.7198,-6.72]}]]